When you browse on this site, cookies collect data to enhance your experience and personalize the content and advertising you see.
Visit our Privacy Policy to learn more. By continuing to use the site, you agree to this use of cookies and data.
  • In Hungary
  • List of Countries
  • For 7 days
  • Water Temperature
  • Weather Map
  • News
  • Weather Widgets
  • user-avatar
    Login

    Hourly Weather Zamczysko

    Today, 22 August, Thursday

    Time Temperature Precipitation Wind Pressure Humidity
    00:00 +15°C° 0 mm 1 mps 767 mmHg 75%
    01:00 +15°C° 0 mm 2 mps 767 mmHg 76%
    02:00 +15°C° 0 mm 1 mps 767 mmHg 77%
    03:00 +15°C° 0 mm 1 mps 767 mmHg 79%
    04:00 +14°C° 0 mm 1 mps 767 mmHg 80%
    05:00 +15°C° 0 mm 1 mps 767 mmHg 78%
    06:00 +16°C° 0 mm 1 mps 767 mmHg 76%
    07:00 +18°C° 0 mm 1 mps 767 mmHg 74%
    08:00 +19°C° 0 mm 2 mps 767 mmHg 69%
    09:00 +20°C° 0 mm 2 mps 767 mmHg 63%
    10:00 +23°C° 0 mm 2 mps 767 mmHg 57%
    11:00 +23°C° 0 mm 2 mps 767 mmHg 53%
    12:00 +24°C° 0 mm 2 mps 767 mmHg 48%
    13:00 +25°C° 0 mm 2 mps 767 mmHg 44%
    14:00 +25°C° 0 mm 2 mps 766 mmHg 44%
    15:00 +25°C° 0 mm 2 mps 766 mmHg 44%
    16:00 +25°C° 0 mm 2 mps 766 mmHg 45%
    17:00 +24°C° 0 mm 2 mps 766 mmHg 50%
    18:00 +21°C° 0 mm 2 mps 766 mmHg 56%
    19:00 +20°C° 0 mm 2 mps 766 mmHg 61%
    20:00 +19°C° 0 mm 2 mps 766 mmHg 64%
    21:00 +18°C° 0 mm 2 mps 766 mmHg 66%
    22:00 +17°C° 0 mm 2 mps 766 mmHg 69%
    23:00 +17°C° 0 mm 2 mps 766 mmHg 70%

    Tomorrow, 23 August, Friday

    Time Temperature Precipitation Wind Pressure Humidity
    00:00 +17°C° 0 mm 2 mps 766 mmHg 71%
    01:00 +16°C° 0 mm 2 mps 766 mmHg 72%
    02:00 +16°C° 0 mm 2 mps 766 mmHg 73%
    03:00 +15°C° 0 mm 2 mps 766 mmHg 74%
    04:00 +15°C° 0 mm 2 mps 766 mmHg 75%
    05:00 +16°C° 0 mm 2 mps 766 mmHg 72%
    06:00 +17°C° 0 mm 2 mps 766 mmHg 70%
    07:00 +18°C° 0 mm 2 mps 766 mmHg 67%
    08:00 +20°C° 0 mm 2 mps 766 mmHg 61%
    09:00 +21°C° 0 mm 2 mps 767 mmHg 55%
    10:00 +24°C° 0 mm 2 mps 767 mmHg 49%
    11:00 +25°C° 0 mm 2 mps 766 mmHg 46%
    12:00 +26°C° 0 mm 2 mps 766 mmHg 43%
    13:00 +26°C° 0 mm 2 mps 766 mmHg 40%
    14:00 +27°C° 0 mm 2 mps 765 mmHg 40%
    15:00 +27°C° 0 mm 2 mps 765 mmHg 40%
    16:00 +27°C° 0 mm 2 mps 765 mmHg 40%
    17:00 +25°C° 0 mm 2 mps 765 mmHg 45%
    18:00 +23°C° 0 mm 2 mps 765 mmHg 51%
    19:00 +21°C° 0 mm 2 mps 764 mmHg 56%
    20:00 +20°C° 0 mm 2 mps 765 mmHg 58%
    21:00 +19°C° 0 mm 2 mps 765 mmHg 60%
    22:00 +19°C° 0 mm 2 mps 765 mmHg 62%
    23:00 +18°C° 0 mm 2 mps 765 mmHg 65%

    Day after tomorrow, 24 August, Saturday

    Time Temperature Precipitation Wind Pressure Humidity
    00:00 +18°C° 0 mm 2 mps 765 mmHg 67%
    01:00 +17°C° 0 mm 2 mps 765 mmHg 69%
    02:00 +17°C° 0 mm 2 mps 764 mmHg 72%
    03:00 +16°C° 0 mm 2 mps 764 mmHg 74%
    04:00 +16°C° 0 mm 2 mps 764 mmHg 77%
    05:00 +17°C° 0 mm 2 mps 764 mmHg 75%
    06:00 +18°C° 0 mm 2 mps 764 mmHg 72%
    07:00 +19°C° 0 mm 2 mps 764 mmHg 70%
    08:00 +21°C° 0 mm 3 mps 764 mmHg 64%
    09:00 +24°C° 0 mm 3 mps 764 mmHg 58%
    10:00 +26°C° 0 mm 4 mps 764 mmHg 52%
    11:00 +26°C° 0 mm 4 mps 764 mmHg 50%
    12:00 +27°C° 0 mm 4 mps 764 mmHg 48%
    13:00 +28°C° 0 mm 4 mps 763 mmHg 46%
    14:00 +28°C° 0 mm 4 mps 763 mmHg 46%
    15:00 +28°C° 0 mm 4 mps 763 mmHg 47%
    16:00 +28°C° 0 mm 4 mps 762 mmHg 47%
    17:00 +26°C° 0 mm 4 mps 762 mmHg 53%
    18:00 +25°C° 0 mm 3 mps 762 mmHg 59%
    19:00 +22°C° 0 mm 3 mps 762 mmHg 64%
    20:00 +21°C° 0 mm 3 mps 762 mmHg 67%
    21:00 +21°C° 0 mm 3 mps 762 mmHg 69%
    22:00 +20°C° 0 mm 3 mps 762 mmHg 72%
    23:00 +19°C° 0 mm 3 mps 762 mmHg 73%

    25 August, Sunday

    Time Temperature Precipitation Wind Pressure Humidity
    00:00 +19°C° 0 mm 3 mps 762 mmHg 75%
    01:00 +18°C° 0 mm 4 mps 762 mmHg 77%
    02:00 +18°C° 0 mm 4 mps 762 mmHg 77%
    03:00 +18°C° 0 mm 4 mps 762 mmHg 78%
    04:00 +18°C° 0 mm 4 mps 761 mmHg 78%
    05:00 +18°C° 0 mm 4 mps 761 mmHg 75%
    06:00 +19°C° 0 mm 4 mps 761 mmHg 72%
    07:00 +20°C° 0 mm 5 mps 761 mmHg 69%
    08:00 +22°C° 0 mm 5 mps 761 mmHg 64%
    09:00 +23°C° 0 mm 5 mps 761 mmHg 60%
    10:00 +26°C° 0 mm 5 mps 761 mmHg 55%
    11:00 +27°C° 0 mm 5 mps 761 mmHg 53%
    12:00 +28°C° 0 mm 5 mps 761 mmHg 51%
    13:00 +29°C° 0 mm 5 mps 761 mmHg 49%
    14:00 +29°C° 0 mm 5 mps 760 mmHg 50%
    15:00 +29°C° 0 mm 5 mps 760 mmHg 50%
    16:00 +29°C° 0 mm 4 mps 760 mmHg 51%
    17:00 +28°C° 0 mm 4 mps 760 mmHg 55%
    18:00 +26°C° 0 mm 4 mps 760 mmHg 60%
    19:00 +25°C° 0 mm 3 mps 760 mmHg 64%
    20:00 +24°C° 0 mm 3 mps 760 mmHg 66%
    21:00 +22°C° 0 mm 3 mps 760 mmHg 67%
    22:00 +22°C° 0 mm 4 mps 760 mmHg 69%
    23:00 +21°C° 0.1 mm 3 mps 760 mmHg 71%

    26 August, Monday

    Time Temperature Precipitation Wind Pressure Humidity
    00:00 +21°C° 0.1 mm 3 mps 760 mmHg 74%
    01:00 +20°C° 0.1 mm 3 mps 760 mmHg 76%
    02:00 +20°C° 0 mm 3 mps 760 mmHg 79%
    03:00 +19°C° 0 mm 3 mps 760 mmHg 82%
    04:00 +19°C° 0 mm 3 mps 760 mmHg 85%
    05:00 +20°C° 0 mm 3 mps 760 mmHg 83%
    06:00 +20°C° 0 mm 3 mps 760 mmHg 80%
    07:00 +21°C° 0 mm 3 mps 760 mmHg 77%
    08:00 +23°C° 0 mm 4 mps 760 mmHg 71%
    09:00 +26°C° 0 mm 4 mps 760 mmHg 66%
    10:00 +28°C° 0 mm 4 mps 760 mmHg 60%
    11:00 +29°C° 0 mm 4 mps 760 mmHg 56%
    12:00 +30°C° 0 mm 3 mps 760 mmHg 52%
    13:00 +31°C° 0 mm 3 mps 760 mmHg 48%
    14:00 +31°C° 0 mm 3 mps 760 mmHg 47%
    15:00 +31°C° 0 mm 3 mps 759 mmHg 47%
    16:00 +31°C° 0 mm 3 mps 759 mmHg 47%
    17:00 +30°C° 0 mm 3 mps 759 mmHg 54%
    18:00 +28°C° 0 mm 3 mps 759 mmHg 61%
    19:00 +26°C° 0 mm 3 mps 759 mmHg 68%
    20:00 +25°C° 0.2 mm 3 mps 759 mmHg 72%
    21:00 +24°C° 0.2 mm 3 mps 760 mmHg 75%
    22:00 +22°C° 0.2 mm 3 mps 760 mmHg 79%
    23:00 +23°C° 0 mm 2 mps 760 mmHg 80%

    27 August, Tuesday

    Time Temperature Precipitation Wind Pressure Humidity
    00:00 +21°C° 0 mm 2 mps 760 mmHg 80%
    01:00 +21°C° 0 mm 2 mps 759 mmHg 81%
    02:00 +20°C° 0 mm 2 mps 759 mmHg 83%
    03:00 +20°C° 0 mm 2 mps 759 mmHg 85%
    04:00 +20°C° 0 mm 2 mps 759 mmHg 86%
    05:00 +20°C° 0.1 mm 2 mps 759 mmHg 85%
    06:00 +21°C° 0.1 mm 2 mps 759 mmHg 83%
    07:00 +23°C° 0.1 mm 2 mps 759 mmHg 81%
    08:00 +25°C° 0.1 mm 2 mps 759 mmHg 74%
    09:00 +27°C° 0.1 mm 3 mps 759 mmHg 67%
    10:00 +29°C° 0.1 mm 3 mps 759 mmHg 60%
    11:00 +30°C° 0 mm 3 mps 759 mmHg 55%
    12:00 +31°C° 0 mm 3 mps 759 mmHg 50%
    13:00 +34°C° 0 mm 3 mps 759 mmHg 45%
    14:00 +34°C° 0 mm 3 mps 758 mmHg 45%
    15:00 +33°C° 0 mm 3 mps 758 mmHg 45%
    16:00 +33°C° 0 mm 3 mps 758 mmHg 45%
    17:00 +31°C° 0 mm 3 mps 757 mmHg 51%
    18:00 +29°C° 0 mm 3 mps 757 mmHg 57%
    19:00 +27°C° 0 mm 3 mps 757 mmHg 63%
    20:00 +26°C° 0.7 mm 3 mps 757 mmHg 67%
    21:00 +25°C° 0.7 mm 3 mps 757 mmHg 72%
    22:00 +24°C° 0.7 mm 3 mps 757 mmHg 77%
    23:00 +24°C° 0 mm 3 mps 757 mmHg 78%
    Show more